TimeMDT,TemperatureF,Dew PointF,Humidity,Sea Level PressureIn,VisibilityMPH,Wind Direction,Wind SpeedMPH,Gust SpeedMPH,PrecipitationIn,Events,Conditions,WindDirDegrees,DateUTC
12:53 AM,55.9,35.1,45,29.84,10.0,ESE,10.4,-,N/A,,Scattered Clouds,120,2013-06-15 06:53:00
1:53 AM,48.0,34.0,58,29.85,10.0,WSW,5.8,-,N/A,,Clear,240,2013-06-15 07:53:00
2:53 AM,44.1,33.1,65,29.86,10.0,WSW,6.9,-,N/A,,Clear,240,2013-06-15 08:53:00
3:53 AM,44.1,33.1,65,29.85,10.0,West,3.5,-,N/A,,Clear,270,2013-06-15 09:53:00
4:53 AM,45.0,35.1,68,29.86,10.0,South,4.6,-,N/A,,Clear,180,2013-06-15 10:53:00
5:53 AM,39.9,34.0,79,29.90,10.0,Calm,Calm,-,N/A,,Clear,0,2013-06-15 11:53:00
6:53 AM,45.0,34.0,65,29.91,10.0,West,5.8,-,N/A,,Clear,260,2013-06-15 12:53:00
7:53 AM,52.0,28.0,40,29.90,10.0,Calm,Calm,-,N/A,,Clear,0,2013-06-15 13:53:00
8:53 AM,59.0,26.1,28,29.88,10.0,SW,3.5,-,N/A,,Clear,230,2013-06-15 14:53:00
9:53 AM,64.0,25.0,23,29.86,10.0,Variable,4.6,-,N/A,,Clear,0,2013-06-15 15:53:00
10:53 AM,68.0,24.1,19,29.83,10.0,SE,6.9,-,N/A,,Clear,140,2013-06-15 16:53:00
11:53 AM,73.9,21.9,14,29.83,10.0,Calm,Calm,-,N/A,,Clear,0,2013-06-15 17:53:00
12:53 PM,73.9,19.9,13,29.83,10.0,Variable,4.6,-,N/A,,Clear,0,2013-06-15 18:53:00
1:53 PM,75.0,19.9,13,29.84,10.0,North,8.1,-,N/A,,Partly Cloudy,360,2013-06-15 19:53:00
2:53 PM,75.0,39.0,27,29.85,10.0,ENE,12.7,-,N/A,,Mostly Cloudy,60,2013-06-15 20:53:00
3:53 PM,73.9,27.0,18,29.85,10.0,SSE,6.9,-,N/A,,Clear,160,2013-06-15 21:53:00
4:53 PM,71.1,39.9,32,29.86,10.0,SSE,11.5,-,N/A,,Partly Cloudy,150,2013-06-15 22:53:00
5:53 PM,73.9,30.9,21,29.85,10.0,SSW,11.5,-,N/A,,Clear,210,2013-06-15 23:53:00
6:53 PM,70.0,44.1,39,29.85,10.0,SE,13.8,-,N/A,,Clear,140,2013-06-16 00:53:00
7:53 PM,66.9,41.0,39,29.86,10.0,SSE,18.4,-,N/A,,Clear,150,2013-06-16 01:53:00
8:53 PM,64.9,42.1,43,29.85,10.0,SSE,17.3,24.2,N/A,,Clear,160,2013-06-16 02:53:00
9:53 PM,61.0,45.0,56,29.86,10.0,SSE,15.0,-,N/A,,Partly Cloudy,150,2013-06-16 03:53:00
10:53 PM,59.0,48.0,67,29.88,10.0,SSE,19.6,-,N/A,,Clear,150,2013-06-16 04:53:00
11:53 PM,57.0,46.0,67,29.86,10.0,SSE,12.7,-,N/A,,Clear,150,2013-06-16 05:53:00